| time (UTC) | temp F | wind direction | speed MPH | gust MPH | rain 1hr in | rain 24hr in | rain mn in | humidity % | barometer mb |
| 20260506031310 | 55 | 20 | 0.0 | 1.0 | 0.00 | 0.10 | 0.10 | 84 | 1012.7 |
| 20260506030807 | 55 | 16 | 0.0 | 3.0 | 0.00 | 0.10 | 0.10 | 84 | 1012.5 |
| 20260506030305 | 55 | 296 | 1.0 | 5.0 | 0.00 | 0.10 | 0.10 | 83 | 1012.6 |
| 20260506025802 | 55 | 299 | 4.0 | 7.0 | 0.00 | 0.10 | 0.10 | 83 | 1012.7 |
| 20260506025258 | 55 | 305 | 5.0 | 6.0 | 0.00 | 0.10 | 0.10 | 83 | 1012.6 |
| 20260506024755 | 55 | 301 | 8.0 | 9.0 | 0.00 | 0.10 | 0.10 | 83 | 1012.5 |
| 20260506024252 | 55 | 328 | 5.0 | 7.0 | 0.00 | 0.10 | 0.10 | 83 | 1012.7 |
| 20260506023748 | 56 | 307 | 5.0 | 9.0 | 0.00 | 0.10 | 0.10 | 82 | 1012.6 |
| 20260506023245 | 55 | 252 | 6.0 | 10.0 | 0.00 | 0.10 | 0.10 | 82 | 1012.5 |
| 20260506022742 | 55 | 317 | 7.0 | 11.0 | 0.00 | 0.10 | 0.10 | 83 | 1012.5 |
| 20260506022240 | 55 | 260 | 7.0 | 10.0 | 0.00 | 0.10 | 0.10 | 83 | 1012.5 |
| 20260506021738 | 55 | 310 | 7.0 | 9.0 | 0.00 | 0.10 | 0.10 | 82 | 1012.3 |
| 20260506021234 | 56 | 325 | 6.0 | 8.0 | 0.00 | 0.10 | 0.10 | 82 | 1012.6 |
| 20260506020731 | 56 | 271 | 5.0 | 9.0 | 0.00 | 0.10 | 0.10 | 82 | 1012.6 |
| 20260506020229 | 56 | 284 | 6.0 | 9.0 | 0.00 | 0.10 | 0.10 | 82 | 1012.6 |
| 20260506015726 | 56 | 261 | 3.0 | 3.0 | 0.00 | 0.10 | 0.10 | 81 | 1012.7 |
| 20260506015224 | 56 | 284 | 6.0 | 10.0 | 0.00 | 0.10 | 0.10 | 81 | 1012.7 |
| 20260506014721 | 56 | 269 | 3.0 | 9.0 | 0.00 | 0.10 | 0.10 | 84 | 1012.3 |
| 20260506014217 | 57 | 273 | 5.0 | 11.0 | 0.00 | 0.10 | 0.10 | 84 | 1012.6 |
| 20260506013714 | 57 | 307 | 8.0 | 14.0 | 0.00 | 0.10 | 0.10 | 84 | 1012.1 |
| 20260506013211 | 58 | 311 | 9.0 | 10.0 | 0.00 | 0.10 | 0.10 | 84 | 1012.2 |
| 20260506012707 | 58 | 289 | 13.0 | 18.0 | 0.00 | 0.10 | 0.10 | 84 | 1012.1 |
| 20260506012205 | 58 | 313 | 7.0 | 13.0 | 0.00 | 0.10 | 0.10 | 85 | 1011.8 |
| 20260506011702 | 59 | 310 | 10.0 | 17.0 | 0.00 | 0.10 | 0.10 | 86 | 1011.9 |
| 20260506011158 | 59 | 278 | 9.0 | 13.0 | 0.00 | 0.10 | 0.10 | 87 | 1011.7 |
| 20260506010657 | 60 | 287 | 7.0 | 10.0 | 0.00 | 0.10 | 0.10 | 88 | 1011.6 |
| 20260506010153 | 60 | 306 | 10.0 | 16.0 | 0.00 | 0.10 | 0.10 | 89 | 1011.1 |
| 20260506005650 | 61 | 313 | 9.0 | 11.0 | 0.00 | 0.10 | 0.10 | 90 | 1011.1 |
| 20260506005147 | 62 | 318 | 9.0 | 11.0 | 0.00 | 0.10 | 0.10 | 90 | 1011.2 |
| 20260506004643 | 62 | 310 | 5.0 | 5.0 | 0.00 | 0.10 | 0.10 | 88 | 1010.8 |
| 20260506004141 | 62 | 294 | 0.0 | 0.0 | 0.00 | 0.10 | 0.10 | 86 | 1010.4 |
| 20260506003637 | 61 | 296 | 0.0 | 0.0 | 0.00 | 0.10 | 0.10 | 88 | 1010.2 |
| 20260506003133 | 62 | 296 | 0.0 | 0.0 | 0.00 | 0.10 | 0.10 | 88 | 1010.3 |
| 20260506002629 | 62 | 303 | 0.0 | 0.0 | 0.00 | 0.10 | 0.10 | 87 | 1010.2 |
| 20260506002125 | 62 | 295 | 0.0 | 0.0 | 0.00 | 0.10 | 0.10 | 87 | 1010.2 |
| 20260506001621 | 62 | 297 | 0.0 | 0.0 | 0.00 | 0.10 | 0.10 | 87 | 1010.1 |
| 20260506001119 | 62 | 220 | 1.0 | 1.0 | 0.00 | 0.10 | 0.10 | 87 | 1010.1 |
| 20260506000616 | 63 | 238 | 1.0 | 2.0 | 0.00 | 0.10 | 0.10 | 86 | 1010.4 |
| 20260506000113 | 63 | 223 | 2.0 | 2.0 | 0.00 | 0.10 | 0.10 | 84 | 1010.2 |
| 20260505235611 | 63 | 340 | 1.0 | 1.0 | 0.00 | 0.10 | 0.10 | 84 | 1009.9 |
| 20260505235108 | 63 | 285 | 1.0 | 1.0 | 0.00 | 0.10 | 0.10 | 86 | 1009.8 |
| 20260505234605 | 62 | 291 | 1.0 | 2.0 | 0.00 | 0.10 | 0.10 | 86 | 1009.8 |
| 20260505234101 | 63 | 349 | 0.0 | 0.0 | 0.00 | 0.10 | 0.10 | 86 | 1009.7 |
| 20260505233559 | 63 | 336 | 0.0 | 0.0 | 0.00 | 0.10 | 0.10 | 86 | 1009.6 |
| 20260505233056 | 64 | 12 | 2.0 | 2.0 | 0.00 | 0.10 | 0.10 | 85 | 1009.8 |
| 20260505232554 | 64 | 336 | 1.0 | 2.0 | 0.00 | 0.10 | 0.10 | 82 | 1009.6 |
| 20260505232051 | 65 | 338 | 0.0 | 0.0 | 0.00 | 0.10 | 0.10 | 80 | 1009.3 |
| 20260505231548 | 65 | 315 | 0.0 | 1.0 | 0.00 | 0.10 | 0.10 | 79 | 1009.0 |
| 20260505231047 | 65 | 318 | 0.0 | 1.0 | 0.00 | 0.10 | 0.10 | 79 | 1009.1 |
| 20260505230544 | 65 | 278 | 0.0 | 1.0 | 0.00 | 0.10 | 0.10 | 79 | 1009.2 |
| 20260505230040 | 65 | 312 | 0.0 | 2.0 | 0.00 | 0.10 | 0.10 | 79 | 1008.8 |
| 20260505225537 | 65 | 277 | 2.0 | 2.0 | 0.00 | 0.10 | 0.10 | 78 | 1009.3 |
| 20260505225033 | 65 | 298 | 2.0 | 5.0 | 0.00 | 0.10 | 0.10 | 78 | 1009.0 |
| 20260505224530 | 65 | 226 | 5.0 | 6.0 | 0.00 | 0.10 | 0.10 | 77 | 1009.0 |
| 20260505224028 | 65 | 230 | 2.0 | 8.0 | 0.00 | 0.10 | 0.10 | 77 | 1009.1 |
| 20260505223525 | 65 | 203 | 5.0 | 7.0 | 0.00 | 0.10 | 0.10 | 78 | 1008.7 |
| 20260505223021 | 65 | 174 | 5.0 | 7.0 | 0.00 | 0.10 | 0.10 | 79 | 1009.0 |
| 20260505222517 | 65 | 212 | 6.0 | 9.0 | 0.00 | 0.10 | 0.10 | 79 | 1009.2 |
| 20260505222013 | 64 | 213 | 6.0 | 10.0 | 0.00 | 0.10 | 0.10 | 80 | 1009.1 |
| 20260505221511 | 64 | 163 | 4.0 | 8.0 | 0.00 | 0.10 | 0.10 | 81 | 1009.1 |
| 20260505221007 | 63 | 204 | 4.0 | 9.0 | 0.00 | 0.10 | 0.10 | 83 | 1009.1 |
| 20260505220504 | 63 | 172 | 3.0 | 5.0 | 0.00 | 0.10 | 0.10 | 84 | 1009.2 |
| 20260505220002 | 62 | 216 | 3.0 | 3.0 | 0.00 | 0.10 | 0.10 | 85 | 1009.1 |
| 20260505215500 | 63 | 24 | 2.0 | 5.0 | 0.00 | 0.10 | 0.10 | 86 | 1009.3 |
| 20260505214957 | 63 | 183 | 0.0 | 3.0 | 0.00 | 0.10 | 0.10 | 85 | 1009.4 |
| 20260505214455 | 63 | 242 | 1.0 | 5.0 | 0.00 | 0.10 | 0.10 | 86 | 1009.4 |
| 20260505213952 | 63 | 296 | 1.0 | 2.0 | 0.00 | 0.10 | 0.10 | 86 | 1009.3 |
| 20260505213450 | 63 | 295 | 1.0 | 5.0 | 0.05 | 0.10 | 0.10 | 85 | 1009.2 |
| 20260505212946 | 62 | 235 | 4.0 | 6.0 | 0.00 | 0.09 | 0.09 | 87 | 1009.5 |
| 20260505212443 | 62 | 248 | 3.0 | 5.0 | 0.00 | 0.09 | 0.09 | 89 | 1009.7 |
| 20260505211939 | 62 | 294 | 2.0 | 3.0 | 0.00 | 0.09 | 0.09 | 89 | 1009.6 |
| 20260505211437 | 62 | 328 | 2.0 | 6.0 | 0.00 | 0.09 | 0.09 | 89 | 1009.6 |
| 20260505210933 | 62 | 299 | 5.0 | 7.0 | 0.00 | 0.09 | 0.09 | 88 | 1009.4 |
| 20260505210430 | 62 | 278 | 7.0 | 10.0 | 0.00 | 0.09 | 0.09 | 87 | 1009.3 |
| 20260505205927 | 62 | 304 | 6.0 | 14.0 | 0.07 | 0.09 | 0.09 | 89 | 1009.3 |
| 20260505205426 | 62 | 313 | 9.0 | 15.0 | 0.07 | 0.09 | 0.09 | 88 | 1009.1 |
| 20260505204922 | 61 | 271 | 9.0 | 17.0 | 0.07 | 0.08 | 0.08 | 88 | 1009.1 |
| 20260505204420 | 61 | 306 | 7.0 | 8.0 | 0.07 | 0.08 | 0.08 | 90 | 1009.2 |
| 20260505203917 | 61 | 280 | 2.0 | 7.0 | 0.00 | 0.07 | 0.07 | 90 | 1009.0 |
| 20260505203413 | 62 | 312 | 6.0 | 9.0 | 0.00 | 0.07 | 0.07 | 88 | 1008.3 |
| 20260505202909 | 62 | 332 | 7.0 | 15.0 | 0.05 | 0.07 | 0.07 | 86 | 1008.5 |
| 20260505202406 | 62 | 316 | 10.0 | 17.0 | 0.05 | 0.07 | 0.07 | 85 | 1008.7 |
| 20260505201902 | 63 | 297 | 8.0 | 16.0 | 0.00 | 0.06 | 0.06 | 84 | 1009.3 |
| 20260505201359 | 65 | 325 | 8.0 | 16.0 | 0.00 | 0.06 | 0.06 | 78 | 1008.7 |
| 20260505200858 | 66 | 334 | 8.0 | 25.0 | 0.00 | 0.06 | 0.06 | 77 | 1008.7 |
| 20260505200354 | 70 | 307 | 13.0 | 32.0 | 0.00 | 0.06 | 0.06 | 72 | 1008.2 |
| 20260505195850 | 71 | 318 | 7.0 | 10.0 | 0.00 | 0.06 | 0.06 | 67 | 1007.9 |
| 20260505195348 | 72 | 327 | 6.0 | 9.0 | 0.00 | 0.06 | 0.06 | 67 | 1007.4 |
| 20260505194844 | 74 | 333 | 5.0 | 9.0 | 0.00 | 0.06 | 0.06 | 67 | 1007.2 |
| 20260505194342 | 74 | 306 | 5.0 | 8.0 | 0.00 | 0.06 | 0.06 | 64 | 1007.2 |
| 20260505193837 | 73 | 307 | 3.0 | 5.0 | 0.00 | 0.06 | 0.06 | 67 | 1007.1 |
| 20260505193335 | 72 | 235 | 4.0 | 6.0 | 0.00 | 0.06 | 0.06 | 69 | 1007.1 |
| 20260505192833 | 71 | 274 | 3.0 | 6.0 | 0.00 | 0.06 | 0.06 | 69 | 1007.0 |
| 20260505192331 | 69 | 299 | 4.0 | 7.0 | 0.00 | 0.06 | 0.06 | 73 | 1007.4 |
| 20260505191828 | 68 | 327 | 3.0 | 5.0 | 0.00 | 0.06 | 0.06 | 77 | 1007.3 |
| 20260505191327 | 65 | 308 | 1.0 | 2.0 | 0.00 | 0.06 | 0.06 | 84 | 1007.2 |
| 20260505190823 | 64 | 51 | 2.0 | 3.0 | 0.00 | 0.06 | 0.06 | 86 | 1007.0 |
| 20260505190318 | 64 | 188 | 2.0 | 2.0 | 0.00 | 0.06 | 0.06 | 85 | 1007.5 |
| 20260505185814 | 64 | 316 | 3.0 | 7.0 | 0.12 | 0.06 | 0.06 | 85 | 1008.1 |
| 20260505185311 | 65 | 339 | 12.0 | 14.0 | 0.12 | 0.06 | 0.06 | 82 | 1008.5 |
| 20260505184807 | 69 | 324 | 18.0 | 27.0 | 0.00 | 0.04 | 0.04 | 71 | 1008.8 |
| 20260505184304 | 70 | 291 | 7.0 | 13.0 | 0.00 | 0.04 | 0.04 | 64 | 1008.1 |
| 20260505183801 | 70 | 264 | 5.0 | 7.0 | 0.00 | 0.04 | 0.04 | 64 | 1007.7 |
| 20260505183258 | 70 | 260 | 4.0 | 8.0 | 0.00 | 0.04 | 0.04 | 63 | 1007.5 |
| 20260505182755 | 70 | 221 | 5.0 | 7.0 | 0.00 | 0.04 | 0.04 | 61 | 1007.3 |
| 20260505182251 | 72 | 204 | 11.0 | 20.0 | 0.00 | 0.04 | 0.04 | 62 | 1007.2 |
| 20260505181748 | 71 | 269 | 9.0 | 14.0 | 0.12 | 0.04 | 0.04 | 58 | 1007.1 |
| 20260505181246 | 71 | 254 | 8.0 | 11.0 | 0.19 | 0.04 | 0.04 | 66 | 1007.0 |
| 20260505180742 | 75 | 272 | 11.0 | 17.0 | 0.00 | 0.01 | 0.01 | 56 | 1007.0 |
| 20260505180238 | 77 | 228 | 10.0 | 22.0 | 0.00 | 0.01 | 0.01 | 44 | 1006.7 |
| 20260505175735 | 78 | 258 | 7.0 | 15.0 | 0.00 | 0.01 | 0.01 | 44 | 1006.9 |
| 20260505175231 | 78 | 287 | 3.0 | 8.0 | 0.00 | 0.01 | 0.01 | 44 | 1006.8 |
| 20260505174728 | 79 | 208 | 7.0 | 10.0 | 0.00 | 0.01 | 0.01 | 43 | 1007.1 |
| 20260505174225 | 79 | 229 | 7.0 | 11.0 | 0.00 | 0.01 | 0.01 | 42 | 1007.1 |
| 20260505173721 | 79 | 203 | 5.0 | 11.0 | 0.00 | 0.01 | 0.01 | 41 | 1007.0 |
| 20260505173218 | 80 | 337 | 5.0 | 15.0 | 0.00 | 0.01 | 0.01 | 40 | 1006.9 |
| 20260505172715 | 80 | 252 | 8.0 | 10.0 | 0.00 | 0.01 | 0.01 | 41 | 1007.0 |
| 20260505172212 | 80 | 210 | 8.0 | 16.0 | 0.00 | 0.01 | 0.01 | 40 | 1006.7 |
| 20260505171707 | 80 | 306 | 5.0 | 8.0 | 0.00 | 0.01 | 0.01 | 42 | 1006.9 |
| 20260505171204 | 79 | 270 | 5.0 | 15.0 | 0.00 | 0.01 | 0.01 | 41 | 1007.1 |
| 20260505170701 | 79 | 258 | 8.0 | 13.0 | 0.00 | 0.01 | 0.01 | 41 | 1006.8 |
| 20260505170158 | 81 | 259 | 10.0 | 18.0 | 0.00 | 0.01 | 0.01 | 39 | 1007.1 |
| 20260505165657 | 81 | 229 | 8.0 | 15.0 | 0.00 | 0.01 | 0.01 | 39 | 1007.0 |
| 20260505165154 | 81 | 218 | 6.0 | 15.0 | 0.00 | 0.01 | 0.01 | 39 | 1007.3 |
| 20260505164649 | 81 | 246 | 14.0 | 17.0 | 0.00 | 0.01 | 0.01 | 39 | 1007.2 |
| 20260505164147 | 80 | 229 | 11.0 | 15.0 | 0.00 | 0.01 | 0.01 | 40 | 1007.2 |
| 20260505163646 | 81 | 208 | 8.0 | 17.0 | 0.00 | 0.01 | 0.01 | 41 | 1007.5 |
| 20260505163143 | 80 | 237 | 7.0 | 13.0 | 0.00 | 0.01 | 0.01 | 42 | 1007.6 |
| 20260505162640 | 80 | 296 | 4.0 | 10.0 | 0.00 | 0.01 | 0.01 | 43 | 1007.5 |
| 20260505162137 | 79 | 283 | 5.0 | 16.0 | 0.00 | 0.01 | 0.01 | 41 | 1007.9 |
| 20260505161634 | 80 | 277 | 9.0 | 14.0 | 0.00 | 0.01 | 0.01 | 43 | 1007.6 |
| 20260505161131 | 79 | 212 | 7.0 | 15.0 | 0.00 | 0.01 | 0.01 | 43 | 1007.9 |
| 20260505160629 | 80 | 252 | 9.0 | 14.0 | 0.00 | 0.01 | 0.01 | 44 | 1007.9 |
| 20260505160126 | 78 | 221 | 7.0 | 21.0 | 0.00 | 0.01 | 0.01 | 44 | 1008.0 |
| 20260505153107 | 77 | 295 | 6.0 | 27.0 | 0.00 | 0.01 | 0.01 | 48 | 1008.2 |
| 20260505152603 | 77 | 218 | 9.0 | 15.0 | 0.00 | 0.01 | 0.01 | 48 | 1008.3 |
| 20260505152058 | 77 | 288 | 6.0 | 14.0 | 0.00 | 0.01 | 0.01 | 49 | 1008.4 |
| 20260505151553 | 76 | 204 | 9.0 | 14.0 | 0.00 | 0.01 | 0.01 | 49 | 1008.7 |
| 20260505151051 | 76 | 198 | 9.0 | 17.0 | 0.00 | 0.01 | 0.01 | 50 | 1008.3 |
| 20260505150547 | 76 | 262 | 11.0 | 17.0 | 0.00 | 0.01 | 0.01 | 50 | 1008.3 |
| 20260505140513 | 71 | 210 | 11.0 | 17.0 | 0.00 | 0.01 | 0.01 | 56 | 1009.1 |
| 20260505124932 | 68 | 201 | 9.0 | 10.0 | 0.00 | 0.01 | 0.01 | 61 | 1009.4 |
| 20260505124429 | 67 | 207 | 5.0 | 9.0 | 0.00 | 0.01 | 0.01 | 62 | 1009.4 |
| 20260505123925 | 67 | 218 | 9.0 | 11.0 | 0.00 | 0.01 | 0.01 | 61 | 1009.3 |
| 20260505123421 | 66 | 252 | 6.0 | 11.0 | 0.00 | 0.01 | 0.01 | 63 | 1009.3 |
| 20260505122917 | 66 | 141 | 7.0 | 10.0 | 0.00 | 0.01 | 0.01 | 63 | 1009.2 |
| 20260505122415 | 66 | 233 | 5.0 | 10.0 | 0.00 | 0.01 | 0.01 | 62 | 1009.6 |
| 20260505121911 | 66 | 214 | 10.0 | 15.0 | 0.00 | 0.01 | 0.01 | 61 | 1009.2 |
| 20260505121408 | 66 | 43 | 3.0 | 16.0 | 0.00 | 0.01 | 0.01 | 62 | 1009.2 |
| 20260505120904 | 66 | 251 | 7.0 | 14.0 | 0.00 | 0.01 | 0.01 | 62 | 1009.2 |
| 20260505120401 | 66 | 237 | 13.0 | 18.0 | 0.05 | 0.01 | 0.01 | 62 | 1009.2 |
| 20260505115859 | 67 | 225 | 6.0 | 17.0 | 0.05 | 0.01 | 0.01 | 62 | 1009.2 |
| 20260505115357 | 67 | 208 | 8.0 | 9.0 | 0.00 | 0.00 | 0.00 | 63 | 1009.3 |
| 20260505114855 | 65 | 212 | 9.0 | 11.0 | 0.00 | 0.00 | 0.00 | 64 | 1009.4 |
| 20260505114351 | 66 | 167 | 3.0 | 10.0 | 0.00 | 0.00 | 0.00 | 64 | 1009.5 |
| 20260505113847 | 64 | 200 | 9.0 | 17.0 | 0.00 | 0.00 | 0.00 | 64 | 1009.5 |
| 20260505113344 | 63 | 169 | 7.0 | 14.0 | 0.00 | 0.00 | 0.00 | 66 | 1009.6 |
| 20260505112839 | 63 | 201 | 9.0 | 13.0 | 0.00 | 0.00 | 0.00 | 66 | 1009.4 |
| 20260505112337 | 63 | 225 | 9.0 | 15.0 | 0.00 | 0.00 | 0.00 | 67 | 1009.4 |
| 20260505111832 | 62 | 215 | 9.0 | 13.0 | 0.00 | 0.00 | 0.00 | 68 | 1009.4 |
| 20260505111328 | 62 | 233 | 6.0 | 11.0 | 0.00 | 0.00 | 0.00 | 69 | 1009.3 |
| 20260505110825 | 62 | 202 | 9.0 | 11.0 | 0.00 | 0.00 | 0.00 | 69 | 1009.3 |
| 20260505110322 | 62 | 238 | 7.0 | 13.0 | 0.00 | 0.00 | 0.00 | 69 | 1009.1 |
| 20260505101756 | 58 | 290 | 1.0 | 3.0 | 0.00 | 0.00 | 0.00 | 77 | 1008.8 |
| 20260505101252 | 58 | 250 | 2.0 | 3.0 | 0.00 | 0.00 | 0.00 | 78 | 1009.0 |
| 20260505100748 | 58 | 173 | 4.0 | 5.0 | 0.00 | 0.00 | 0.00 | 78 | 1009.1 |
| 20260505100245 | 58 | 230 | 1.0 | 2.0 | 0.00 | 0.00 | 0.00 | 79 | 1009.0 |
| 20260505095741 | 59 | 246 | 1.0 | 2.0 | 0.00 | 0.00 | 0.00 | 78 | 1008.8 |
| 20260505095239 | 59 | 174 | 3.0 | 3.0 | 0.00 | 0.00 | 0.00 | 78 | 1009.1 |
| 20260505094734 | 60 | 216 | 3.0 | 6.0 | 0.00 | 0.00 | 0.00 | 77 | 1009.1 |
| 20260505094231 | 60 | 203 | 3.0 | 8.0 | 0.00 | 0.00 | 0.00 | 76 | 1009.0 |
| 20260505093727 | 60 | 214 | 4.0 | 7.0 | 0.00 | 0.00 | 0.00 | 76 | 1009.1 |
| 20260505093225 | 61 | 215 | 5.0 | 7.0 | 0.00 | 0.00 | 0.00 | 75 | 1009.0 |
| 20260505092721 | 62 | 233 | 5.0 | 10.0 | 0.00 | 0.00 | 0.00 | 71 | 1009.0 |
| 20260505092220 | 63 | 253 | 3.0 | 9.0 | 0.00 | 0.00 | 0.00 | 65 | 1009.0 |
| 20260505091717 | 63 | 223 | 5.0 | 9.0 | 0.00 | 0.00 | 0.00 | 62 | 1008.8 |
| 20260505091215 | 63 | 213 | 7.0 | 13.0 | 0.00 | 0.00 | 0.00 | 61 | 1008.8 |
| 20260505090712 | 63 | 258 | 8.0 | 10.0 | 0.00 | 0.00 | 0.00 | 60 | 1008.6 |
| 20260505090210 | 63 | 215 | 4.0 | 11.0 | 0.00 | 0.00 | 0.00 | 59 | 1008.8 |
| 20260505085708 | 62 | 210 | 5.0 | 11.0 | 0.00 | 0.00 | 0.00 | 59 | 1008.8 |
| 20260505085206 | 63 | 233 | 6.0 | 11.0 | 0.00 | 0.00 | 0.00 | 59 | 1009.1 |
| 20260505084703 | 63 | 191 | 5.0 | 8.0 | 0.00 | 0.00 | 0.00 | 59 | 1008.7 |
| 20260505084201 | 63 | 207 | 4.0 | 9.0 | 0.00 | 0.00 | 0.00 | 59 | 1008.8 |
| 20260505083658 | 63 | 227 | 7.0 | 9.0 | 0.00 | 0.00 | 0.00 | 58 | 1008.6 |
| 20260505083155 | 64 | 228 | 4.0 | 8.0 | 0.00 | 0.00 | 0.00 | 58 | 1009.0 |
| 20260505082651 | 64 | 252 | 6.0 | 10.0 | 0.00 | 0.00 | 0.00 | 58 | 1008.6 |
| 20260505082148 | 63 | 240 | 5.0 | 10.0 | 0.00 | 0.00 | 0.00 | 57 | 1009.0 |
| 20260505081644 | 63 | 241 | 6.0 | 10.0 | 0.00 | 0.00 | 0.00 | 57 | 1009.0 |
| 20260505081142 | 63 | 258 | 3.0 | 9.0 | 0.00 | 0.00 | 0.00 | 58 | 1008.7 |
| 20260505080638 | 63 | 227 | 7.0 | 10.0 | 0.00 | 0.00 | 0.00 | 57 | 1009.0 |
| 20260505080134 | 63 | 227 | 5.0 | 10.0 | 0.00 | 0.00 | 0.00 | 58 | 1009.1 |
| 20260505075631 | 62 | 200 | 5.0 | 10.0 | 0.00 | 0.00 | 0.00 | 58 | 1009.4 |
| 20260505075127 | 62 | 242 | 5.0 | 7.0 | 0.00 | 0.00 | 0.00 | 58 | 1009.0 |
| 20260505074624 | 62 | 192 | 6.0 | 10.0 | 0.00 | 0.00 | 0.00 | 57 | 1009.1 |
| 20260505074121 | 63 | 204 | 4.0 | 10.0 | 0.00 | 0.00 | 0.00 | 57 | 1009.2 |
| 20260505073619 | 63 | 234 | 6.0 | 9.0 | 0.00 | 0.00 | 0.00 | 57 | 1009.1 |
| 20260505073117 | 62 | 238 | 4.0 | 9.0 | 0.00 | 0.00 | 0.00 | 56 | 1009.2 |
| 20260505072612 | 63 | 192 | 4.0 | 10.0 | 0.00 | 0.00 | 0.00 | 57 | 1008.8 |
| 20260505072109 | 63 | 253 | 4.0 | 9.0 | 0.00 | 0.00 | 0.00 | 56 | 1008.7 |
| 20260505071604 | 63 | 200 | 5.0 | 10.0 | 0.00 | 0.00 | 0.00 | 56 | 1008.7 |
| 20260505071103 | 63 | 216 | 6.0 | 9.0 | 0.00 | 0.00 | 0.00 | 55 | 1008.8 |
| 20260505070600 | 63 | 225 | 5.0 | 11.0 | 0.00 | 0.00 | 0.00 | 56 | 1008.6 |
| 20260505070056 | 63 | 220 | 7.0 | 10.0 | 0.00 | 0.00 | 0.00 | 56 | 1008.6 |
| 20260505065552 | 63 | 234 | 9.0 | 11.0 | 0.00 | 0.00 | 0.00 | 56 | 1008.4 |
| 20260505065049 | 62 | 202 | 9.0 | 13.0 | 0.00 | 0.00 | 0.00 | 56 | 1008.7 |
| 20260505064545 | 63 | 214 | 4.0 | 13.0 | 0.00 | 0.00 | 0.00 | 56 | 1008.5 |
| 20260505064044 | 63 | 158 | 4.0 | 11.0 | 0.00 | 0.00 | 0.00 | 55 | 1009.0 |
| 20260505063541 | 63 | 220 | 7.0 | 9.0 | 0.00 | 0.00 | 0.00 | 56 | 1008.5 |
| 20260505063037 | 63 | 207 | 11.0 | 16.0 | 0.00 | 0.00 | 0.00 | 55 | 1008.8 |
| 20260505062533 | 63 | 222 | 9.0 | 10.0 | 0.00 | 0.00 | 0.00 | 55 | 1008.8 |
| 20260505062031 | 63 | 308 | 3.0 | 8.0 | 0.00 | 0.00 | 0.00 | 55 | 1008.7 |
| 20260505061528 | 63 | 204 | 4.0 | 11.0 | 0.00 | 0.00 | 0.00 | 55 | 1008.6 |
| 20260505061026 | 63 | 198 | 3.0 | 16.0 | 0.00 | 0.00 | 0.00 | 55 | 1009.0 |
| 20260505060523 | 63 | 199 | 6.0 | 17.0 | 0.00 | 0.00 | 0.00 | 55 | 1008.6 |
| 20260505060020 | 63 | 224 | 7.0 | 10.0 | 0.00 | 0.00 | 0.00 | 55 | 1008.7 |
| 20260505055510 | 63 | 229 | 5.0 | 10.0 | 0.00 | 0.00 | 0.00 | 55 | 1008.5 |
| 20260505055007 | 63 | 233 | 9.0 | 15.0 | 0.00 | 0.00 | 0.00 | 54 | 1008.6 |
| 20260505054504 | 63 | 234 | 5.0 | 9.0 | 0.00 | 0.00 | 0.00 | 54 | 1008.5 |
| 20260505054002 | 63 | 176 | 6.0 | 15.0 | 0.00 | 0.00 | 0.00 | 54 | 1008.8 |
| 20260505053459 | 63 | 284 | 4.0 | 8.0 | 0.00 | 0.00 | 0.00 | 54 | 1008.8 |
| 20260505052955 | 63 | 205 | 12.0 | 16.0 | 0.00 | 0.00 | 0.00 | 54 | 1008.5 |
| 20260505052453 | 63 | 252 | 5.0 | 10.0 | 0.00 | 0.00 | 0.00 | 54 | 1008.7 |
| 20260505051950 | 63 | 248 | 12.0 | 17.0 | 0.00 | 0.00 | 0.00 | 54 | 1008.7 |
| 20260505051447 | 63 | 215 | 8.0 | 13.0 | 0.00 | 0.00 | 0.00 | 54 | 1008.6 |
| 20260505050945 | 63 | 218 | 4.0 | 10.0 | 0.00 | 0.00 | 0.00 | 54 | 1008.8 |
| 20260505050443 | 63 | 221 | 10.0 | 16.0 | 0.00 | 0.00 | 0.00 | 54 | 1008.7 |
| 20260505041411 | 63 | 246 | 5.0 | 8.0 | 0.00 | 0.00 | 0.00 | 53 | 1009.5 |
| 20260505040908 | 63 | 197 | 4.0 | 8.0 | 0.00 | 0.00 | 0.00 | 54 | 1009.2 |
| 20260505040405 | 62 | 191 | 3.0 | 3.0 | 0.00 | 0.00 | 0.00 | 55 | 1009.3 |
| 20260505035901 | 62 | 211 | 2.0 | 2.0 | 0.00 | 0.00 | 0.00 | 54 | 1009.2 |
| 20260505035358 | 62 | 189 | 1.0 | 2.0 | 0.00 | 0.00 | 0.00 | 54 | 1009.2 |
| 20260505034855 | 63 | 287 | 3.0 | 3.0 | 0.00 | 0.00 | 0.00 | 53 | 1009.1 |
| 20260505034352 | 63 | 210 | 2.0 | 7.0 | 0.00 | 0.00 | 0.00 | 53 | 1009.0 |
| 20260505033849 | 63 | 231 | 4.0 | 8.0 | 0.00 | 0.00 | 0.00 | 52 | 1008.8 |
| 20260505033345 | 63 | 187 | 7.0 | 11.0 | 0.00 | 0.00 | 0.00 | 51 | 1008.8 |
| 20260505032844 | 63 | 223 | 4.0 | 9.0 | 0.00 | 0.00 | 0.00 | 52 | 1009.1 |
| 20260505032340 | 64 | 184 | 5.0 | 7.0 | 0.00 | 0.00 | 0.00 | 51 | 1008.7 |
| 20260505031837 | 64 | 227 | 4.0 | 8.0 | 0.00 | 0.00 | 0.00 | 51 | 1009.1 |